Weather History for Perryton, TX

Change the Weather History Date:

Sunday, February 3, 2013

  Actual Average Record
Temperature  
Mean Temperature 44 °F -  
Max Temperature 64 °F 45 °F 70 °F (1991)
Min Temperature 23 °F 17 °F -9 °F (1989)
Degree Days  
Heating Degree Days 22    
Moisture  
Dew Point 22 °F    
Average Humidity 46    
Maximum Humidity 80    
Minimum Humidity 16    
Precipitation  
Precipitation 0.00 in - - ()
Sea Level Pressure  
Sea Level Pressure 30.07 in    
Wind  
Wind Speed 11 mph (SSW)    
Max Wind Speed 30 mph    
Max Gust Speed 39 mph    
Visibility 10 miles    
Events      
Averages and records for this station are not official NWS values.
T = Trace of Precipitation, MM = Missing Value Source: NWS Daily Summary

Daily Weather History Graph

Daily Weather History Graph

Search for Another Location

Airport:

Trip Planner

Search our weather history database for the weather conditions in past years. The results will help you decide how hot, cold, wet, or windy it might be!

Date:

Astronomy

Feb. 03, 2013 Rise Set
Actual Time 7:42 AM CST 6:11 PM CST
Civil Twilight 7:15 AM CST 6:38 PM CST
Nautical Twilight 6:44 AM CST 7:09 PM CST
Astronomical Twilight 6:14 AM CST 7:39 PM CST
Moon 1:11 AM CST (2/3) 11:51 AM CST (2/3)
Length of Visible Light 11h 23m
Length of Day
10h 29m
Waning Gibbous, 48% of the Moon is Illuminated
Feb 3
Waning Gibbous
Feb 10
New
Feb 17
First Quarter
Feb 25
Full
Mar 4
Last Quarter

Hourly Weather History & Observations

Time (CST) Temp. Windchill Dew Point Humidity Pressure Visibility Wind Dir Wind Speed Gust Speed Precip Events Conditions
12:15 AM 32.0 °F 25.6 °F 19.4 °F 60% 30.28 in 10.0 mi SW 6.9 mph - N/A   Clear
12:35 AM 32.0 °F 26.4 °F 19.4 °F 60% 30.28 in 10.0 mi SW 5.8 mph - N/A   Clear
12:55 AM 32.0 °F 26.4 °F 19.4 °F 60% 30.29 in 10.0 mi SW 5.8 mph - N/A   Clear
1:15 AM 32.0 °F 26.4 °F 19.4 °F 60% 30.28 in 10.0 mi SSW 5.8 mph - N/A   Clear
1:35 AM 32.0 °F 25.6 °F 19.4 °F 60% 30.27 in 10.0 mi SSW 6.9 mph - N/A   Clear
2:15 AM 28.4 °F 19.7 °F 19.4 °F 69% 30.26 in 10.0 mi SSW 9.2 mph - N/A   Clear
2:35 AM 26.6 °F 16.8 °F 19.4 °F 74% 30.26 in 10.0 mi SSW 10.4 mph - N/A   Clear
3:15 AM 26.6 °F 16.8 °F 19.4 °F 74% 30.25 in 10.0 mi SSW 10.4 mph - N/A   Clear
3:55 AM 28.4 °F 24.6 °F 19.4 °F 69% 30.24 in 10.0 mi SW 3.5 mph - N/A   Clear
4:15 AM 30.2 °F 26.7 °F 19.4 °F 64% 30.24 in 10.0 mi WSW 3.5 mph - N/A   Clear
4:35 AM 30.2 °F 24.3 °F 19.4 °F 64% 30.24 in 10.0 mi SW 5.8 mph - N/A   Clear
4:55 AM 30.2 °F - 19.4 °F 64% 30.24 in 10.0 mi Calm Calm - N/A   Clear
5:15 AM 23.0 °F 17.0 °F 14.0 °F 68% 30.23 in 10.0 mi NW 4.6 mph - N/A   Clear
5:35 AM 26.6 °F 20.0 °F 17.6 °F 69% 30.24 in 10.0 mi North 5.8 mph - N/A   Clear
6:15 AM 26.6 °F - 17.6 °F 69% 30.23 in 10.0 mi Calm Calm - N/A   Clear
6:35 AM 24.8 °F 20.5 °F 17.6 °F 74% 30.23 in 10.0 mi SE 3.5 mph - N/A   Clear
6:55 AM 26.6 °F 22.6 °F 17.6 °F 69% 30.22 in 10.0 mi SE 3.5 mph - N/A   Clear
7:15 AM 23.0 °F 17.0 °F 17.6 °F 80% 30.22 in 10.0 mi ESE 4.6 mph - N/A   Clear
7:35 AM 26.6 °F 19.1 °F 19.4 °F 74% 30.22 in 10.0 mi SE 6.9 mph - N/A   Clear
7:55 AM 23.0 °F 15.8 °F 17.6 °F 80% 30.21 in 10.0 mi SE 5.8 mph - N/A   Clear
8:15 AM 26.6 °F 19.1 °F 19.4 °F 74% 30.21 in 10.0 mi SE 6.9 mph - N/A   Clear
8:35 AM 30.2 °F 25.4 °F 21.2 °F 69% 30.21 in 10.0 mi SSE 4.6 mph - N/A   Clear
8:55 AM 33.8 °F 28.6 °F 23.0 °F 65% 30.20 in 10.0 mi SSE 5.8 mph - N/A   Clear
9:15 AM 35.6 °F 30.7 °F 24.8 °F 65% 30.20 in 10.0 mi SSE 5.8 mph - N/A   Clear
9:35 AM 41.0 °F 35.2 °F 24.8 °F 53% 30.19 in 10.0 mi South 9.2 mph - N/A   Clear
9:55 AM 44.6 °F 38.8 °F 26.6 °F 49% 30.19 in 10.0 mi SSW 11.5 mph 16.1 mph N/A   Clear
10:15 AM 50.0 °F - 24.8 °F 37% 30.18 in 10.0 mi SSW 15.0 mph - N/A   Clear
10:55 AM 53.6 °F - 24.8 °F 33% 30.16 in 10.0 mi SW 18.4 mph 23.0 mph N/A   Clear
11:15 AM 57.2 °F - 23.0 °F 27% 30.15 in 10.0 mi SW 23.0 mph 29.9 mph N/A   Clear
11:35 AM 57.2 °F - 21.2 °F 25% 30.14 in 10.0 mi SW 21.9 mph - N/A   Clear
11:55 AM 59.0 °F - 21.2 °F 23% 30.13 in 10.0 mi SW 21.9 mph 28.8 mph N/A   Clear
12:15 PM 59.0 °F - 21.2 °F 23% 30.12 in 10.0 mi SSW 19.6 mph 27.6 mph N/A   Clear
12:35 PM 60.8 °F - 21.2 °F 22% 30.10 in 10.0 mi SSW 20.7 mph 29.9 mph N/A   Clear
12:55 PM 62.6 °F - 19.4 °F 19% 30.08 in 10.0 mi SW 23.0 mph - N/A   Clear
1:15 PM 62.6 °F - 17.6 °F 18% 30.06 in 10.0 mi SSW 25.3 mph 29.9 mph N/A   Clear
1:35 PM 64.4 °F - 17.6 °F 16% 30.04 in 10.0 mi SSW 25.3 mph 32.2 mph N/A   Clear
1:55 PM 64.4 °F - 17.6 °F 16% 30.02 in 10.0 mi SSW 24.2 mph 31.1 mph N/A   Clear
2:15 PM 64.4 °F - 19.4 °F 18% 30.00 in 10.0 mi SSW 26.5 mph 32.2 mph N/A   Clear
2:55 PM 62.6 °F - 19.4 °F 19% 29.98 in 10.0 mi SSW 29.9 mph 39.1 mph N/A   Clear
3:15 PM 62.6 °F - 17.6 °F 18% 29.96 in 10.0 mi SSW 24.2 mph 32.2 mph N/A   Clear
3:35 PM 62.6 °F - 17.6 °F 18% 29.95 in 10.0 mi SSW 28.8 mph 34.5 mph N/A   Clear
3:55 PM 60.8 °F - 19.4 °F 20% 29.94 in 10.0 mi SSW 25.3 mph 34.5 mph N/A   Clear
4:15 PM 60.8 °F - 21.2 °F 22% 29.93 in 10.0 mi SSW 25.3 mph 34.5 mph N/A   Clear
4:55 PM 60.8 °F - 21.2 °F 22% 29.91 in 10.0 mi SSW 23.0 mph 31.1 mph N/A   Clear
5:15 PM 59.0 °F - 23.0 °F 25% 29.90 in 10.0 mi SSW 23.0 mph 31.1 mph N/A   Clear
5:55 PM 59.0 °F - 23.0 °F 25% 29.90 in 10.0 mi SSW 15.0 mph - N/A   Clear
6:15 PM 57.2 °F - 23.0 °F 27% 29.89 in 10.0 mi SSW 15.0 mph - N/A   Clear
6:35 PM 55.4 °F - 24.8 °F 31% 29.89 in 10.0 mi South 12.7 mph - N/A   Clear
6:55 PM 55.4 °F - 24.8 °F 31% 29.89 in 10.0 mi South 12.7 mph - N/A   Clear
7:35 PM 53.6 °F - 26.6 °F 35% 29.88 in 10.0 mi South 12.7 mph - N/A   Clear
7:55 PM 53.6 °F - 26.6 °F 35% 29.88 in 10.0 mi South 10.4 mph - N/A   Clear
8:15 PM 51.8 °F - 26.6 °F 38% 29.87 in 10.0 mi South 10.4 mph - N/A   Clear
8:35 PM 51.8 °F - 26.6 °F 38% 29.86 in 10.0 mi South 12.7 mph - N/A   Scattered Clouds
8:55 PM 51.8 °F - 28.4 °F 41% 29.87 in 10.0 mi South 12.7 mph - N/A   Scattered Clouds
9:15 PM 51.8 °F - 28.4 °F 41% 29.85 in 10.0 mi South 12.7 mph - N/A   Scattered Clouds
9:35 PM 51.8 °F - 28.4 °F 41% 29.85 in 10.0 mi South 12.7 mph - N/A   Scattered Clouds
9:55 PM 50.0 °F - 30.2 °F 47% 29.85 in 10.0 mi South 11.5 mph - N/A   Scattered Clouds
10:15 PM 50.0 °F - 32.0 °F 50% 29.84 in 10.0 mi South 12.7 mph - N/A   Scattered Clouds
10:55 PM 51.8 °F - 32.0 °F 47% 29.82 in 10.0 mi South 16.1 mph - N/A   Overcast
11:15 PM 50.0 °F - 32.0 °F 50% 29.81 in 10.0 mi South 12.7 mph - N/A   Overcast
11:35 PM 50.0 °F - 32.0 °F 50% 29.81 in 10.0 mi South 8.1 mph - N/A   Scattered Clouds
11:55 PM 50.0 °F - 32.0 °F 50% 29.80 in 10.0 mi SSW 11.5 mph - N/A   Clear